Tracking 19181 objects as of 17-Jun-2018
HD Live streaming from Space Station
objects crossing your sky now

NIMBUS 2 DEB

Track NIMBUS 2 DEB now!
10-day predictions


NORAD ID: 37891
Int'l Code: 1966-040AW
Perigee: 1,076.3 km
Apogee: 1,173.2 km
Inclination: 100.6 °
Period: 107.6 minutes
Semi major axis: 7495 km
RCS: 0.0282 m2 (small)
Launch date: May 15, 1966
Source: United States (US)
Launch site: AIR FORCE WESTERN TEST RANGE (AFWTR)

Note: This is SATELLITE DEBRIS
aabbcc
Your satellite tracking list
Your tracking list is empty




NASA's NSSDC Master Catalog

Two Line Element Set (TLE):
1 37891U 66040AW  18168.41250867 +.00000511 +00000-0 +10503-2 0  9999
2 37891 100.5636 329.1702 0064635 348.8665 011.1026 13.37759786342487
Source of the keplerian elements: AFSPC